This is the latest recevied weather packets stored in our database for station/object KB0BS-13. If no packets are shown the sender has not sent any weather packets the latest 10 day(s).
| Time | Temp. | Humidity | Pressure | Rain* | Wind** | Luminosity | Snow |
|---|---|---|---|---|---|---|---|
| 1777397678 | 8.33° C | 99% | 1006.8 hPa | 0 mm | - | 126 W/m² | - |
| 1777397374 | 8.33° C | 99% | 1006.6 hPa | 0 mm | - | 160 W/m² | - |
| 1777397071 | 7.78° C | 99% | 1006.7 hPa | 0 mm | - | 157 W/m² | - |
| 1777396767 | 8.33° C | 99% | 1006.3 hPa | 0 mm | - | 114 W/m² | - |
| 1777396465 | 8.33° C | 99% | 1006 hPa | 0 mm | - | 144 W/m² | - |
| 1777396161 | 8.33° C | 99% | 1006 hPa | 0 mm | - | 144 W/m² | - |
| 1777395857 | 8.33° C | 99% | 1006.2 hPa | 0 mm | - | 133 W/m² | - |
| 1777395553 | 8.33° C | 99% | 1006 hPa | 0 mm | - | 171 W/m² | - |
| 1777395249 | 8.33° C | 99% | 1005.8 hPa | 0 mm | - | 155 W/m² | - |
| 1777394948 | 8.33° C | 99% | 1005.7 hPa | 0 mm | - | 184 W/m² | - |
| 1777394643 | 8.33° C | 99% | 1005.6 hPa | 0 mm | - | 226 W/m² | - |
| 1777394340 | 8.33° C | 99% | 1005.4 hPa | 0 mm | - | 207 W/m² | - |
| 1777394035 | 8.89° C | 99% | 1005 hPa | 0 mm | - | 180 W/m² | - |
| 1777393730 | 8.33° C | 99% | 1005.3 hPa | 0 mm | - | 204 W/m² | - |
| 1777393425 | 8.33° C | 99% | 1005.2 hPa | 1.78 mm | - | 137 W/m² | - |
| 1777393122 | 8.89° C | 99% | 1004.9 hPa | 1.78 mm | - | 181 W/m² | - |
| 1777392818 | 8.33° C | 99% | 1004.9 hPa | 0 mm | - | 210 W/m² | - |
| 1777392514 | 8.33° C | 99% | 1005 hPa | 0 mm | - | 206 W/m² | - |
| 1777392210 | 8.33° C | 99% | 1005.1 hPa | 0 mm | - | 125 W/m² | - |
| 1777391906 | 8.89° C | 99% | 1004.8 hPa | 0 mm | - | 128 W/m² | - |
| 1777391600 | 8.89° C | 99% | 1004.7 hPa | 0 mm | - | 93 W/m² | - |
| 1777391297 | 8.89° C | 99% | 1004.6 hPa | 1.27 mm | - | 89 W/m² | - |
| 1777390994 | 8.89° C | 99% | 1004.3 hPa | 1.27 mm | - | 101 W/m² | - |
| 1777390690 | 8.89° C | 99% | 1004.3 hPa | 1.78 mm | - | 87 W/m² | - |
| 1777390387 | 8.89° C | 99% | 1004.3 hPa | 0 mm | - | 102 W/m² | - |
* Rain latest hour (hover to see other rain measurements)
** Current wind speed in m/s (hover to see current wind gust speed)